TimeEDT,TemperatureF,Dew PointF,Humidity,Sea Level PressureIn,VisibilityMPH,Wind Direction,Wind SpeedMPH,Gust SpeedMPH,PrecipitationIn,Events,Conditions,WindDirDegrees,DateUTC
12:21 AM,55.4,53.6,94,30.06,3.0,NW,3.5,-,0.00,Rain,Light Rain,310,2012-10-10 04:21:00
12:54 AM,55.0,54.0,96,30.05,3.0,Calm,Calm,-,N/A,,Overcast,0,2012-10-10 04:54:00
1:00 AM,55.4,53.6,94,30.05,2.5,Calm,Calm,-,0.00,,Light Drizzle,0,2012-10-10 05:00:00
1:32 AM,55.4,53.6,94,30.04,1.8,Calm,Calm,-,0.00,,Overcast,0,2012-10-10 05:32:00
1:54 AM,55.9,54.0,93,30.03,1.8,Calm,Calm,-,0.00,,Overcast,0,2012-10-10 05:54:00
2:54 AM,55.9,54.0,93,30.02,1.0,Calm,Calm,-,0.00,,Light Drizzle,0,2012-10-10 06:54:00
3:54 AM,55.0,54.0,96,30.00,1.0,Calm,Calm,-,0.00,,Light Drizzle,0,2012-10-10 07:54:00
4:51 AM,55.4,55.4,100,29.99,2.0,Calm,Calm,-,0.00,,Overcast,0,2012-10-10 08:51:00
4:54 AM,55.9,55.0,97,29.99,2.0,Calm,Calm,-,0.00,,Overcast,0,2012-10-10 08:54:00
5:01 AM,55.4,55.4,100,29.99,3.0,Calm,Calm,-,N/A,,Overcast,0,2012-10-10 09:01:00
5:32 AM,55.4,53.6,94,29.99,2.5,Calm,Calm,-,N/A,,Overcast,0,2012-10-10 09:32:00
5:54 AM,55.0,55.0,100,29.99,2.0,Calm,Calm,-,N/A,,Overcast,0,2012-10-10 09:54:00
6:54 AM,55.0,54.0,96,29.99,2.5,West,4.6,-,N/A,,Overcast,280,2012-10-10 10:54:00
7:34 AM,55.4,55.4,100,29.99,1.8,West,4.6,-,N/A,,Overcast,270,2012-10-10 11:34:00
7:54 AM,55.9,55.0,97,29.99,1.8,Calm,Calm,-,N/A,,Overcast,0,2012-10-10 11:54:00
7:59 AM,55.4,55.4,100,29.99,1.5,Calm,Calm,-,N/A,,Mostly Cloudy,0,2012-10-10 11:59:00
8:06 AM,55.4,55.4,100,29.99,1.8,Calm,Calm,-,N/A,,Mostly Cloudy,0,2012-10-10 12:06:00
8:34 AM,55.4,55.4,100,29.99,2.0,Calm,Calm,-,N/A,,Mostly Cloudy,0,2012-10-10 12:34:00
8:54 AM,55.9,55.0,97,30.00,2.5,West,3.5,-,N/A,,Mostly Cloudy,260,2012-10-10 12:54:00
9:19 AM,59.0,55.4,88,29.99,3.0,WSW,5.8,-,N/A,,Scattered Clouds,250,2012-10-10 13:19:00
9:54 AM,60.1,54.0,80,29.99,6.0,West,6.9,-,N/A,,Haze,260,2012-10-10 13:54:00
10:54 AM,62.1,51.1,67,29.97,10.0,West,11.5,-,N/A,,Scattered Clouds,260,2012-10-10 14:54:00
11:54 AM,63.0,50.0,63,29.96,10.0,West,11.5,-,N/A,,Mostly Cloudy,280,2012-10-10 15:54:00
12:54 PM,64.9,48.0,54,29.95,10.0,West,12.7,-,N/A,,Scattered Clouds,260,2012-10-10 16:54:00
1:54 PM,66.9,44.1,44,29.90,10.0,West,10.4,-,N/A,,Scattered Clouds,280,2012-10-10 17:54:00
2:54 PM,68.0,44.1,42,29.89,10.0,West,8.1,17.3,N/A,,Scattered Clouds,280,2012-10-10 18:54:00
3:54 PM,68.0,45.0,43,29.87,10.0,West,10.4,-,N/A,,Scattered Clouds,260,2012-10-10 19:54:00
4:54 PM,66.9,45.0,45,29.87,10.0,West,9.2,-,N/A,,Scattered Clouds,260,2012-10-10 20:54:00
5:54 PM,66.0,46.0,48,29.88,10.0,SSW,4.6,-,N/A,,Scattered Clouds,210,2012-10-10 21:54:00
6:54 PM,64.0,48.0,56,29.90,10.0,Calm,Calm,-,N/A,,Overcast,0,2012-10-10 22:54:00
7:54 PM,64.0,46.0,52,29.95,10.0,WNW,12.7,23.0,N/A,,Scattered Clouds,300,2012-10-10 23:54:00
8:54 PM,60.1,41.0,49,29.99,10.0,NW,20.7,28.8,N/A,,Scattered Clouds,310,2012-10-11 00:54:00
9:54 PM,57.0,41.0,55,30.03,10.0,WNW,13.8,23.0,N/A,,Clear,300,2012-10-11 01:54:00
10:54 PM,54.0,42.1,64,30.06,10.0,West,5.8,-,N/A,,Clear,270,2012-10-11 02:54:00
11:54 PM,51.1,42.1,71,30.09,10.0,West,3.5,-,N/A,,Clear,280,2012-10-11 03:54:00